#timestamp,LO_Frequency 
1444446015.7,286047001.4
1444446035.6,286047001.9
1444446055.5,286046999.8
1444446075.5,286047002.6
1444446095.4,286046997.6
1444446115.3,286047000.4
1444446135.2,286046999.1
1444446155.2,286046998.8
1444446175.1,286047000.9
1444446176.0,286047000.9
1444446195.0,286047000.2
1444446195.9,286047000.2
1444446215.9,286047000.3
1444446235.8,286047000.5
1444446255.7,286046997.3
1444446275.6,286047002.2
1444446295.6,286047001.0
1444446315.5,286046997.0
1444446335.4,286047001.0
1444446355.3,286046998.9
1444446375.3,286047000.7
1444446395.2,286047000.7
1444446415.1,286046998.9
1444446435.0,286046998.8
1444446436.0,286046998.8
1444446455.9,286046999.8
1444446475.8,286047004.0
1444446495.7,286046996.5
1444446515.7,286047002.7
1444446535.6,286046996.5
1444446555.5,286047002.0
1444446575.4,286047000.7
1444446595.4,286047001.0
1444446615.3,286046998.8
1444446635.2,286047002.1
1444446655.1,286047000.5
1444446675.1,286046999.0
1444446676.0,286046999.0
1444446695.9,286047001.2
1444446715.8,286047000.0
1444446735.8,286046996.6
1444446755.7,286047001.9
1444446775.6,286046998.6
1444446795.5,286047000.0
1444446815.5,286047002.3
1444446835.4,286046998.7
1444446855.3,286046998.1
1444446875.2,286047001.8
1444446895.2,286047000.1
1444446915.1,286047001.3
1444446916.0,286047001.3
1444446935.0,286046998.8
1444446935.9,286046998.8
1444446955.9,286047002.1
1444446975.8,286046998.3
1444446995.7,286047002.2
1444447015.6,286046999.0
1444447035.6,286047000.0
1444447055.5,286047000.6
1444447075.4,286047002.0
1444447095.3,286046998.4
1444447115.3,286047001.2
1444447135.2,286046999.6
1444447155.1,286046998.2
1444447175.0,286046999.7
1444447175.9,286046999.7
1444447195.9,286047000.1
1444447215.8,286047001.1
1444447235.7,286046998.8
1444447255.6,286047002.3
1444447275.6,286046999.8
1444447295.5,286046998.1
1444447315.4,286047003.4
1444447335.3,286046999.1
1444447355.3,286047001.0
1444447375.2,286046998.2
1444447395.1,286047002.8
1444447415.0,286046996.7
1444447416.0,286046996.7
1444447435.9,286047003.4
1444447455.8,286047000.1
1444447475.7,286047002.8
1444447495.7,286046996.5
1444447515.6,286047001.7
1444447535.5,286046997.2
1444447555.4,286047002.0
1444447575.4,286047000.0
1444447595.3,286047000.7
1444447615.2,286046997.0
1444447635.1,286047002.9
1444447655.1,286047004.2
1444447656.0,286047004.2
1444447675.9,286046994.1
1444447695.8,286047000.9
1444447715.8,286046998.3
1444447735.7,286047000.7
1444447755.6,286046996.9
1444447775.5,286047000.7
1444447795.5,286047004.4
1444447815.4,286046998.0
1444447835.3,286046996.6
1444447855.2,286046999.8
1444447875.2,286047002.2
1444447895.1,286047002.4
1444447896.0,286047002.4
1444447915.0,286046996.7
1444447915.9,286046996.7
1444447935.9,286047003.6
1444447955.8,286046996.9
1444447975.7,286046998.5
1444447995.6,286047002.1
1444448015.6,286046998.5
1444448035.5,286047002.3
1444448055.4,286046998.4
1444448075.3,286047001.7
1444448095.3,286047001.2
1444448115.2,286046998.4
1444448135.1,286047004.0
1444448155.0,286046996.6
1444448156.0,286046996.6
1444448175.9,286047003.4
1444448195.8,286047002.4
1444448215.7,286046998.6
1444448235.7,286047003.7
1444448255.6,286047000.3
1444448275.5,286046998.8
1444448295.4,286046996.7
1444448315.4,286047000.6
1444448335.3,286046999.4
1444448355.2,286046996.7
1444448375.1,286046998.1
1444448395.1,286047004.0
1444448396.0,286047004.0
1444448415.9,286046990.9
1444448435.8,286047005.1
1444448455.8,286047010.0
1444448475.7,286046999.6
1444448495.6,286047001.3
1444448515.5,286047004.2
1444448535.5,286047001.3
1444448555.4,286047004.0
1444448575.3,286046998.3
1444448595.2,286046999.9
1444448615.2,286047000.7
1444448635.1,286046998.1
1444448636.0,286046998.1
1444448655.0,286047000.3
1444448655.9,286047000.3
1444448675.9,286047002.5
1444448695.8,286047004.0
1444448715.7,286047002.6
1444448735.6,286047002.8
1444448755.6,286047000.2
1444448775.5,286047002.0
1444448795.4,286046999.7
1444448815.3,286047002.8
1444448835.3,286047016.8
1444448855.2,286047029.8
1444448875.1,286047028.7
1444448895.0,286047026.5
1444448896.0,286047026.5
1444448915.9,286047005.2
1444448935.8,286047025.9
1444448955.7,286047028.5
1444448975.7,286047037.9
1444448995.6,286047052.0
1444449015.5,286047008.5
1444449035.4,286047014.5
1444449055.4,286047013.4
1444449075.3,286047020.0
1444449095.2,286047013.7
1444449115.1,286047021.2
1444449135.1,286047020.5
1444449136.0,286047020.5
1444449155.9,286046996.5
1444449175.8,286047012.0
1444449195.7,286047015.3
1444449215.7,286047003.6
1444449235.6,286047026.5
1444449255.5,286047019.7
1444449275.4,286047007.8
1444449295.4,286047011.1
1444449315.3,286047040.3
1444449335.2,286047010.5
1444449355.1,286047000.2
1444449375.1,286047011.4
1444449376.0,286047011.4
1444449395.9,286046994.5
1444449415.8,286046996.6
1444449435.8,286047026.1
1444449455.7,286046995.0
1444449475.6,286047012.5
1444449495.5,286047010.0
1444449515.5,286047003.4
1444449535.4,286046988.0
1444449555.3,286046978.5
1444449575.2,286046979.5
1444449595.2,286046985.1
